Location: Clermont
(50.2608°N, 4.3172°E)
Time: 07:54:04
(UTC+00:00)

Thor Agena Rocket - Pass Details

Date: 13 August 2020
Orbit: 760 x 807 km, 99.0° (Epoch: 26 September)

Event Time Altitude Azimuth Distance (km) Brightness Sun altitude
Rises 21:51:01 0° 23° (NNE) 3,246 7.3 -20.6°
Reaches altitude 10° 21:53:36 10° 34° (NE) 2,321 6.3 -20.8°
Maximum altitude 21:58:04 30° 95° (E) 1,365 4.5 -21.1°
Enters shadow 21:58:14 30° 99° (E) 1,366 4.5 -21.1°
